Time,TemperatureF,DewpointF,PressureIn,WindDirection,WindDirectionDegrees,WindSpeedMPH,WindSpeedGustMPH,Humidity,HourlyPrecipIn,Conditions,Clouds,dailyrainin,SoftwareType,DateUTC
2013-01-25 00:03:00,11.1,-9.6,30.20,NNE,32,4.0,9.0,38,0.00,,,0.00,Wunderground v.1.15,2013-01-25 05:03:00,
2013-01-25 00:05:00,11.0,-9.7,30.20,NNW,336,3.0,10.0,38,0.00,,,0.00,Wunderground v.1.15,2013-01-25 05:05:00,
2013-01-25 00:07:00,11.1,-9.6,30.20,NNW,348,3.0,10.0,38,0.00,,,0.00,Wunderground v.1.15,2013-01-25 05:07:00,
2013-01-25 00:12:00,11.0,-9.7,30.18,North,359,4.0,9.0,38,0.00,,,0.00,Wunderground v.1.15,2013-01-25 05:12:00,
2013-01-25 00:14:00,11.0,-9.7,30.18,NW,324,5.0,9.0,38,0.00,,,0.00,Wunderground v.1.15,2013-01-25 05:14:00,
2013-01-25 00:20:00,10.9,-9.3,30.19,NNE,21,6.0,6.0,39,0.00,,,0.00,Wunderground v.1.15,2013-01-25 05:20:00,
2013-01-25 00:26:00,10.8,-9.4,30.19,NNE,22,5.0,9.0,39,0.00,,,0.00,Wunderground v.1.15,2013-01-25 05:26:00,
2013-01-25 00:32:00,10.7,-9.4,30.20,NE,55,3.0,9.0,39,0.00,,,0.00,Wunderground v.1.15,2013-01-25 05:32:00,
2013-01-25 00:37:00,10.6,-9.5,30.19,North,350,4.0,9.0,39,0.00,,,0.00,Wunderground v.1.15,2013-01-25 05:37:00,
2013-01-25 00:43:00,10.5,-9.6,30.20,ESE,104,3.0,9.0,39,0.00,,,0.00,Wunderground v.1.15,2013-01-25 05:43:00,
2013-01-25 00:49:00,10.4,-9.2,30.19,North,9,3.0,9.0,40,0.00,,,0.00,Wunderground v.1.15,2013-01-25 05:49:00,
2013-01-25 00:54:00,10.3,-9.3,30.19,NNE,24,4.0,9.0,40,0.00,,,0.00,Wunderground v.1.15,2013-01-25 05:54:00,
2013-01-25 01:00:00,10.4,-9.2,30.20,NNE,32,4.0,4.0,40,0.00,,,0.00,Wunderground v.1.15,2013-01-25 06:00:00,
2013-01-25 01:06:00,10.3,-9.3,30.19,North,359,4.0,9.0,40,0.00,,,0.00,Wunderground v.1.15,2013-01-25 06:06:00,
2013-01-25 01:12:00,10.3,-9.3,30.20,East,100,5.0,9.0,40,0.00,,,0.00,Wunderground v.1.15,2013-01-25 06:12:00,
2013-01-25 01:17:00,10.2,-8.9,30.21,North,8,4.0,9.0,41,0.00,,,0.00,Wunderground v.1.15,2013-01-25 06:17:00,
2013-01-25 01:23:00,10.1,-9.0,30.21,NW,317,3.0,9.0,41,0.00,,,0.00,Wunderground v.1.15,2013-01-25 06:23:00,
2013-01-25 01:29:00,10.0,-9.1,30.21,NW,326,2.0,9.0,41,0.00,,,0.00,Wunderground v.1.15,2013-01-25 06:29:00,
2013-01-25 01:34:00,10.0,-9.1,30.21,NE,44,3.0,9.0,41,0.00,,,0.00,Wunderground v.1.15,2013-01-25 06:34:00,
2013-01-25 01:40:00,9.9,-8.7,30.22,NNE,32,4.0,4.0,42,0.00,,,0.00,Wunderground v.1.15,2013-01-25 06:40:00,
2013-01-25 01:45:00,9.9,-8.7,30.22,North,354,3.0,9.0,42,0.00,,,0.00,Wunderground v.1.15,2013-01-25 06:45:00,
2013-01-25 01:51:00,9.8,-8.3,30.22,NNW,337,2.0,9.0,43,0.00,,,0.00,Wunderground v.1.15,2013-01-25 06:51:00,
2013-01-25 01:57:00,9.8,-8.3,30.22,NNW,327,2.0,9.0,43,0.00,,,0.00,Wunderground v.1.15,2013-01-25 06:57:00,
2013-01-25 02:02:00,9.7,-8.4,30.22,West,274,3.0,9.0,43,0.00,,,0.00,Wunderground v.1.15,2013-01-25 07:02:00,
2013-01-25 02:08:00,9.6,-8.4,30.22,NNW,340,3.0,9.0,43,0.00,,,0.00,Wunderground v.1.15,2013-01-25 07:08:00,
2013-01-25 02:14:00,9.7,-8.4,30.22,NE,34,4.0,9.0,43,0.00,,,0.00,Wunderground v.1.15,2013-01-25 07:14:00,
2013-01-25 02:20:00,9.6,-8.4,30.22,WNW,300,4.0,4.0,43,0.00,,,0.00,Wunderground v.1.15,2013-01-25 07:20:00,
2013-01-25 02:25:00,9.5,-8.1,30.22,NNE,12,3.0,9.0,44,0.00,,,0.00,Wunderground v.1.15,2013-01-25 07:25:00,
2013-01-25 02:31:00,9.4,-8.2,30.22,NE,43,3.0,9.0,44,0.00,,,0.00,Wunderground v.1.15,2013-01-25 07:31:00,
2013-01-25 02:37:00,9.4,-8.2,30.22,West,266,4.0,11.0,44,0.00,,,0.00,Wunderground v.1.15,2013-01-25 07:37:00,
2013-01-25 02:43:00,9.5,-7.6,30.22,NNW,332,4.0,9.0,45,0.00,,,0.00,Wunderground v.1.15,2013-01-25 07:43:00,
2013-01-25 02:48:00,9.4,-7.7,30.23,NNW,330,4.0,9.0,45,0.00,,,0.00,Wunderground v.1.15,2013-01-25 07:48:00,
2013-01-25 02:54:00,9.3,-7.8,30.23,NW,314,4.0,9.0,45,0.00,,,0.00,Wunderground v.1.15,2013-01-25 07:54:00,
2013-01-25 03:00:00,9.3,-7.8,30.23,NNW,341,4.0,9.0,45,0.00,,,0.00,Wunderground v.1.15,2013-01-25 08:00:00,
2013-01-25 03:06:00,9.2,-7.4,30.23,NNE,31,4.0,9.0,46,0.00,,,0.00,Wunderground v.1.15,2013-01-25 08:06:00,
2013-01-25 03:12:00,9.2,-7.4,30.23,North,354,3.0,9.0,46,0.00,,,0.00,Wunderground v.1.15,2013-01-25 08:12:00,
2013-01-25 03:18:00,9.2,-7.4,30.23,NNE,14,4.0,9.0,46,0.00,,,0.00,Wunderground v.1.15,2013-01-25 08:18:00,
2013-01-25 03:24:00,9.2,-7.4,30.23,NNW,332,4.0,9.0,46,0.00,,,0.00,Wunderground v.1.15,2013-01-25 08:24:00,
2013-01-25 03:29:00,9.2,-7.4,30.23,North,4,4.0,9.0,46,0.00,,,0.00,Wunderground v.1.15,2013-01-25 08:29:00,
2013-01-25 03:35:00,9.2,-7.4,30.23,NNW,343,3.0,9.0,46,0.00,,,0.00,Wunderground v.1.15,2013-01-25 08:35:00,
2013-01-25 03:41:00,9.2,-7.4,30.23,North,354,4.0,8.0,46,0.00,,,0.00,Wunderground v.1.15,2013-01-25 08:41:00,
2013-01-25 03:47:00,9.3,-7.3,30.23,NNW,347,5.0,9.0,46,0.00,,,0.00,Wunderground v.1.15,2013-01-25 08:47:00,
2013-01-25 03:52:00,9.3,-7.3,30.23,NNE,31,4.0,9.0,46,0.00,,,0.00,Wunderground v.1.15,2013-01-25 08:52:00,
2013-01-25 03:58:00,9.3,-7.3,30.23,NNW,345,4.0,10.0,46,0.00,,,0.00,Wunderground v.1.15,2013-01-25 08:58:00,
2013-01-25 04:04:00,9.3,-7.3,30.23,NNW,342,5.0,9.0,46,0.00,,,0.00,Wunderground v.1.15,2013-01-25 09:04:00,
2013-01-25 04:10:00,9.3,-7.3,30.23,North,359,4.0,9.0,46,0.00,,,0.00,Wunderground v.1.15,2013-01-25 09:10:00,
2013-01-25 04:16:00,9.4,-7.2,30.24,NE,42,5.0,11.0,46,0.00,,,0.00,Wunderground v.1.15,2013-01-25 09:16:00,
2013-01-25 04:22:00,9.3,-7.8,30.23,NE,56,4.0,9.0,45,0.00,,,0.00,Wunderground v.1.15,2013-01-25 09:22:00,
2013-01-25 04:28:00,9.2,-7.9,30.23,NE,54,4.0,14.0,45,0.00,,,0.00,Wunderground v.1.15,2013-01-25 09:28:00,
2013-01-25 04:33:00,9.2,-7.9,30.24,SSE,164,3.0,9.0,45,0.00,,,0.00,Wunderground v.1.15,2013-01-25 09:33:00,
2013-01-25 04:39:00,9.2,-7.9,30.24,NNW,328,4.0,9.0,45,0.00,,,0.00,Wunderground v.1.15,2013-01-25 09:39:00,
2013-01-25 04:45:00,9.2,-7.9,30.24,NW,305,3.0,9.0,45,0.00,,,0.00,Wunderground v.1.15,2013-01-25 09:45:00,
2013-01-25 04:50:00,9.2,-8.3,30.24,NW,317,4.0,9.0,44,0.00,,,0.00,Wunderground v.1.15,2013-01-25 09:50:00,
2013-01-25 04:56:00,9.2,-8.3,30.24,NE,38,4.0,9.0,44,0.00,,,0.00,Wunderground v.1.15,2013-01-25 09:56:00,
2013-01-25 05:02:00,9.3,-8.3,30.25,NNW,334,4.0,9.0,44,0.00,,,0.00,Wunderground v.1.15,2013-01-25 10:02:00,
2013-01-25 05:07:00,9.3,-8.7,30.25,NNW,343,4.0,9.0,43,0.00,,,0.00,Wunderground v.1.15,2013-01-25 10:07:00,
2013-01-25 05:13:00,9.3,-8.3,30.25,NNW,338,4.0,9.0,44,0.00,,,0.00,Wunderground v.1.15,2013-01-25 10:13:00,
2013-01-25 05:19:00,9.3,-8.7,30.25,WNW,300,3.0,9.0,43,0.00,,,0.00,Wunderground v.1.15,2013-01-25 10:19:00,
2013-01-25 05:25:00,9.2,-8.8,30.25,NE,43,3.0,9.0,43,0.00,,,0.00,Wunderground v.1.15,2013-01-25 10:25:00,
2013-01-25 05:31:00,9.2,-8.8,30.25,NNW,335,3.0,9.0,43,0.00,,,0.00,Wunderground v.1.15,2013-01-25 10:31:00,
2013-01-25 05:36:00,9.2,-8.3,30.25,NW,326,3.0,9.0,44,0.00,,,0.00,Wunderground v.1.15,2013-01-25 10:36:00,
2013-01-25 05:42:00,9.1,-8.4,30.25,NW,310,3.0,9.0,44,0.00,,,0.00,Wunderground v.1.15,2013-01-25 10:42:00,
2013-01-25 05:48:00,9.0,-8.1,30.25,NW,306,3.0,9.0,45,0.00,,,0.00,Wunderground v.1.15,2013-01-25 10:48:00,
2013-01-25 05:53:00,8.9,-8.6,30.25,NW,318,3.0,9.0,44,0.00,,,0.00,Wunderground v.1.15,2013-01-25 10:53:00,
2013-01-25 05:59:00,8.8,-8.3,30.26,NNE,14,3.0,9.0,45,0.00,,,0.00,Wunderground v.1.15,2013-01-25 10:59:00,
2013-01-25 06:05:00,8.7,-7.9,30.25,WNW,288,3.0,9.0,46,0.00,,,0.00,Wunderground v.1.15,2013-01-25 11:05:00,
2013-01-25 06:11:00,8.5,-8.1,30.25,WNW,289,2.0,9.0,46,0.00,,,0.00,Wunderground v.1.15,2013-01-25 11:11:00,
2013-01-25 06:16:00,8.4,-7.7,30.26,NW,312,2.0,9.0,47,0.00,,,0.00,Wunderground v.1.15,2013-01-25 11:16:00,
2013-01-25 06:22:00,8.3,-7.4,30.26,NW,316,2.0,9.0,48,0.00,,,0.00,Wunderground v.1.15,2013-01-25 11:22:00,
2013-01-25 06:28:00,8.2,-7.5,30.25,NW,320,2.0,9.0,48,0.00,,,0.00,Wunderground v.1.15,2013-01-25 11:28:00,
2013-01-25 06:34:00,8.0,-7.7,30.26,NW,326,2.0,9.0,48,0.00,,,0.00,Wunderground v.1.15,2013-01-25 11:34:00,
2013-01-25 06:39:00,8.0,-7.2,30.25,NW,326,2.0,9.0,49,0.00,,,0.00,Wunderground v.1.15,2013-01-25 11:39:00,
2013-01-25 06:45:00,8.0,-7.2,30.25,NW,314,2.0,9.0,49,0.00,,,0.00,Wunderground v.1.15,2013-01-25 11:45:00,
2013-01-25 06:51:00,7.9,-7.3,30.25,NE,47,2.0,9.0,49,0.00,,,0.00,Wunderground v.1.15,2013-01-25 11:51:00,
2013-01-25 06:57:00,7.8,-7.0,30.25,WNW,289,2.0,9.0,50,0.00,,,0.00,Wunderground v.1.15,2013-01-25 11:57:00,
2013-01-25 07:03:00,7.8,-7.0,30.25,North,8,2.0,9.0,50,0.00,,,0.00,Wunderground v.1.15,2013-01-25 12:03:00,
2013-01-25 07:09:00,7.8,-7.0,30.25,NNW,327,2.0,9.0,50,0.00,,,0.00,Wunderground v.1.15,2013-01-25 12:09:00,
2013-01-25 07:15:00,7.9,-7.3,30.25,NW,318,2.0,9.0,49,0.00,,,0.00,Wunderground v.1.15,2013-01-25 12:15:00,
2013-01-25 07:20:00,8.0,-6.8,30.25,NW,304,3.0,9.0,50,0.00,,,0.00,Wunderground v.1.15,2013-01-25 12:20:00,
2013-01-25 07:26:00,8.3,-6.5,30.26,North,8,3.0,9.0,50,0.00,,,0.00,Wunderground v.1.15,2013-01-25 12:26:00,
2013-01-25 07:32:00,8.6,-6.3,30.25,North,354,3.0,9.0,50,0.00,,,0.00,Wunderground v.1.15,2013-01-25 12:32:00,
2013-01-25 07:38:00,9.0,-6.3,30.26,NNW,327,2.0,9.0,49,0.00,,,0.00,Wunderground v.1.15,2013-01-25 12:38:00,
2013-01-25 07:43:00,9.4,-6.4,30.26,NNW,337,3.0,9.0,48,0.00,,,0.00,Wunderground v.1.15,2013-01-25 12:43:00,
2013-01-25 07:49:00,9.7,-6.5,30.26,NW,322,4.0,9.0,47,0.00,,,0.00,Wunderground v.1.15,2013-01-25 12:49:00,
2013-01-25 07:55:00,9.8,-6.9,30.25,NW,313,4.0,9.0,46,0.00,,,0.00,Wunderground v.1.15,2013-01-25 12:55:00,
2013-01-25 08:00:00,9.9,-6.8,30.26,North,8,4.0,4.0,46,0.00,,,0.00,Wunderground v.1.15,2013-01-25 13:00:00,
2013-01-25 08:05:00,10.1,-7.1,30.26,ESE,106,4.0,11.0,45,0.00,,,0.00,Wunderground v.1.15,2013-01-25 13:05:00,
2013-01-25 08:11:00,10.4,-7.2,30.26,East,97,6.0,11.0,44,0.00,,,0.00,Wunderground v.1.15,2013-01-25 13:11:00,
2013-01-25 08:17:00,10.8,-6.9,30.26,NE,37,5.0,11.0,44,0.00,,,0.00,Wunderground v.1.15,2013-01-25 13:17:00,
2013-01-25 08:22:00,10.9,-7.7,30.26,NNW,341,5.0,8.0,42,0.00,,,0.00,Wunderground v.1.15,2013-01-25 13:22:00,
2013-01-25 08:28:00,11.1,-7.6,30.27,NW,324,5.0,8.0,42,0.00,,,0.00,Wunderground v.1.15,2013-01-25 13:28:00,
2013-01-25 08:34:00,11.2,-8.0,30.27,NW,313,5.0,8.0,41,0.00,,,0.00,Wunderground v.1.15,2013-01-25 13:34:00,
2013-01-25 08:40:00,11.5,-7.7,30.26,NNE,31,5.0,5.0,41,0.00,,,0.00,Wunderground v.1.15,2013-01-25 13:40:00,
2013-01-25 08:45:00,11.8,-7.9,30.26,NNW,335,5.0,10.0,40,0.00,,,0.00,Wunderground v.1.15,2013-01-25 13:45:00,
2013-01-25 08:51:00,12.2,-7.1,30.26,NNE,18,5.0,8.0,41,0.00,,,0.00,Wunderground v.1.15,2013-01-25 13:51:00,
2013-01-25 08:57:00,12.6,-7.7,30.26,NNE,25,5.0,8.0,39,0.00,,,0.00,Wunderground v.1.15,2013-01-25 13:57:00,
2013-01-25 09:03:00,12.9,-7.4,30.26,NNE,18,6.0,8.0,39,0.00,,,0.00,Wunderground v.1.15,2013-01-25 14:03:00,
2013-01-25 09:08:00,13.2,-7.2,30.26,ENE,63,4.0,9.0,39,0.00,,,0.00,Wunderground v.1.15,2013-01-25 14:08:00,
2013-01-25 09:14:00,13.4,-7.5,30.26,North,349,4.0,8.0,38,0.00,,,0.00,Wunderground v.1.15,2013-01-25 14:14:00,
2013-01-25 09:20:00,13.5,-7.4,30.26,NNE,20,5.0,5.0,38,0.00,,,0.00,Wunderground v.1.15,2013-01-25 14:20:00,
2013-01-25 09:25:00,13.7,-7.3,30.26,North,349,6.0,10.0,38,0.00,,,0.00,Wunderground v.1.15,2013-01-25 14:25:00,
2013-01-25 09:31:00,14.0,-7.5,30.27,NNW,345,5.0,9.0,37,0.00,,,0.00,Wunderground v.1.15,2013-01-25 14:31:00,
2013-01-25 09:37:00,14.1,-7.4,30.27,NW,316,6.0,10.0,37,0.00,,,0.00,Wunderground v.1.15,2013-01-25 14:37:00,
2013-01-25 09:43:00,14.4,-7.2,30.27,NNE,23,6.0,8.0,37,0.00,,,0.00,Wunderground v.1.15,2013-01-25 14:43:00,
2013-01-25 09:49:00,14.7,-7.5,30.28,NNW,344,5.0,11.0,36,0.00,,,0.00,Wunderground v.1.15,2013-01-25 14:49:00,
2013-01-25 09:54:00,14.9,-6.7,30.28,North,349,6.0,11.0,37,0.00,,,0.00,Wunderground v.1.15,2013-01-25 14:54:00,
2013-01-25 10:00:00,15.3,-6.4,30.28,NNW,342,5.0,9.0,37,0.00,,,0.00,Wunderground v.1.15,2013-01-25 15:00:00,
2013-01-25 10:06:00,15.7,-6.6,30.28,WNW,301,6.0,14.0,36,0.00,,,0.00,Wunderground v.1.15,2013-01-25 15:06:00,
2013-01-25 10:12:00,16.0,-6.9,30.28,West,261,6.0,8.0,35,0.00,,,0.00,Wunderground v.1.15,2013-01-25 15:12:00,
2013-01-25 10:18:00,15.8,-7.1,30.28,ENE,68,5.0,8.0,35,0.00,,,0.00,Wunderground v.1.15,2013-01-25 15:18:00,
2013-01-25 10:24:00,16.2,-6.7,30.27,NNW,328,5.0,8.0,35,0.00,,,0.00,Wunderground v.1.15,2013-01-25 15:24:00,
2013-01-25 10:30:00,16.5,-6.4,30.27,West,259,5.0,5.0,35,0.00,,,0.00,Wunderground v.1.15,2013-01-25 15:30:00,
2013-01-25 10:36:00,17.0,-6.6,30.27,NNE,19,4.0,8.0,34,0.00,,,0.00,Wunderground v.1.15,2013-01-25 15:36:00,
2013-01-25 10:41:00,17.2,-5.8,30.26,NE,38,5.0,8.0,35,0.00,,,0.00,Wunderground v.1.15,2013-01-25 15:41:00,
2013-01-25 10:47:00,16.8,-6.8,30.26,NNW,341,8.0,17.0,34,0.00,,,0.00,Wunderground v.1.15,2013-01-25 15:47:00,
2013-01-25 10:53:00,16.9,-6.7,30.26,NNW,333,9.0,9.0,34,0.00,,,0.00,Wunderground v.1.15,2013-01-25 15:53:00,
2013-01-25 10:59:00,17.3,-6.3,30.26,NE,41,7.0,15.0,34,0.00,,,0.00,Wunderground v.1.15,2013-01-25 15:59:00,
2013-01-25 11:04:00,17.6,-5.5,30.26,WNW,291,5.0,8.0,35,0.00,,,0.00,Wunderground v.1.15,2013-01-25 16:04:00,
2013-01-25 11:10:00,18.0,-5.7,30.26,NNW,346,5.0,8.0,34,0.00,,,0.00,Wunderground v.1.15,2013-01-25 16:10:00,
2013-01-25 11:16:00,17.9,-5.8,30.26,North,350,6.0,9.0,34,0.00,,,0.00,Wunderground v.1.15,2013-01-25 16:16:00,
2013-01-25 11:22:00,18.3,-6.1,30.25,North,350,5.0,10.0,33,0.00,,,0.00,Wunderground v.1.15,2013-01-25 16:22:00,
2013-01-25 11:27:00,18.8,-6.2,30.25,NNW,329,6.0,11.0,32,0.00,,,0.00,Wunderground v.1.15,2013-01-25 16:27:00,
2013-01-25 11:33:00,18.9,-6.2,30.25,NW,306,6.0,9.0,32,0.00,,,0.00,Wunderground v.1.15,2013-01-25 16:33:00,
2013-01-25 11:39:00,18.9,-6.8,30.24,North,354,7.0,11.0,31,0.00,,,0.00,Wunderground v.1.15,2013-01-25 16:39:00,
2013-01-25 11:45:00,19.3,-7.1,30.24,WNW,287,6.0,9.0,30,0.00,,,0.00,Wunderground v.1.15,2013-01-25 16:45:00,
2013-01-25 11:51:00,19.6,-6.2,30.23,North,354,5.0,8.0,31,0.00,,,0.00,Wunderground v.1.15,2013-01-25 16:51:00,
2013-01-25 11:56:00,19.7,-7.5,30.23,NNE,26,5.0,12.0,29,0.00,,,0.00,Wunderground v.1.15,2013-01-25 16:56:00,
2013-01-25 12:02:00,20.2,-5.7,30.23,NW,320,5.0,11.0,31,0.00,,,0.00,Wunderground v.1.15,2013-01-25 17:02:00,
2013-01-25 12:08:00,20.1,-7.1,30.23,WSW,258,6.0,11.0,29,0.00,,,0.00,Wunderground v.1.15,2013-01-25 17:08:00,
2013-01-25 12:13:00,20.4,-6.9,30.22,NNE,19,7.0,14.0,29,0.00,,,0.00,Wunderground v.1.15,2013-01-25 17:13:00,
2013-01-25 12:18:00,20.5,-7.5,30.22,East,98,7.0,14.0,28,0.00,,,0.00,Wunderground v.1.15,2013-01-25 17:18:00,
2013-01-25 12:24:00,21.3,-6.1,30.21,NE,44,6.0,8.0,29,0.00,,,0.00,Wunderground v.1.15,2013-01-25 17:24:00,
2013-01-25 12:30:00,21.7,-7.2,30.21,ENE,66,5.0,5.0,27,0.00,,,0.00,Wunderground v.1.15,2013-01-25 17:30:00,
2013-01-25 12:35:00,22.2,-6.8,30.21,ENE,62,4.0,8.0,27,0.00,,,0.00,Wunderground v.1.15,2013-01-25 17:35:00,
2013-01-25 12:41:00,22.8,-6.3,30.20,NE,43,3.0,8.0,27,0.00,,,0.00,Wunderground v.1.15,2013-01-25 17:41:00,
2013-01-25 12:47:00,23.3,-5.8,30.20,WNW,291,4.0,8.0,27,0.00,,,0.00,Wunderground v.1.15,2013-01-25 17:47:00,
2013-01-25 12:53:00,23.5,-5.6,30.19,NNE,25,5.0,8.0,27,0.00,,,0.00,Wunderground v.1.15,2013-01-25 17:53:00,
2013-01-25 12:58:00,23.0,-6.9,30.19,NW,307,6.0,13.0,26,0.00,,,0.00,Wunderground v.1.15,2013-01-25 17:58:00,
2013-01-25 13:04:00,23.0,-7.7,30.19,NNW,339,7.0,11.0,25,0.00,,,0.00,Wunderground v.1.15,2013-01-25 18:04:00,
2013-01-25 13:10:00,23.1,-7.6,30.19,NNE,18,6.0,8.0,25,0.00,,,0.00,Wunderground v.1.15,2013-01-25 18:10:00,
2013-01-25 13:16:00,23.0,-6.9,30.19,NNE,20,5.0,11.0,26,0.00,,,0.00,Wunderground v.1.15,2013-01-25 18:16:00,
2013-01-25 13:21:00,23.6,-5.6,30.19,NNW,338,5.0,10.0,27,0.00,,,0.00,Wunderground v.1.15,2013-01-25 18:21:00,
2013-01-25 13:27:00,23.1,-7.6,30.18,NE,36,6.0,10.0,25,0.00,,,0.00,Wunderground v.1.15,2013-01-25 18:27:00,
2013-01-25 13:33:00,23.2,-7.5,30.18,East,89,7.0,10.0,25,0.00,,,0.00,Wunderground v.1.15,2013-01-25 18:33:00,
2013-01-25 13:38:00,23.8,-7.0,30.17,NNW,345,6.0,13.0,25,0.00,,,0.00,Wunderground v.1.15,2013-01-25 18:38:00,
2013-01-25 13:44:00,23.5,-8.1,30.17,NNW,337,6.0,8.0,24,0.00,,,0.00,Wunderground v.1.15,2013-01-25 18:44:00,
2013-01-25 13:50:00,23.3,-8.2,30.17,East,93,7.0,10.0,24,0.00,,,0.00,Wunderground v.1.15,2013-01-25 18:50:00,
2013-01-25 13:56:00,23.2,-8.3,30.16,East,99,6.0,10.0,24,0.00,,,0.00,Wunderground v.1.15,2013-01-25 18:56:00,
2013-01-25 14:02:00,23.3,-8.2,30.16,North,10,5.0,8.0,24,0.00,,,0.00,Wunderground v.1.15,2013-01-25 19:02:00,
2013-01-25 14:07:00,23.1,-9.3,30.16,ENE,75,5.0,10.0,23,0.00,,,0.00,Wunderground v.1.15,2013-01-25 19:07:00,
2013-01-25 14:13:00,23.1,-8.4,30.16,NE,38,4.0,8.0,24,0.00,,,0.00,Wunderground v.1.15,2013-01-25 19:13:00,
2013-01-25 14:19:00,23.4,-9.0,30.16,North,11,3.0,8.0,23,0.00,,,0.00,Wunderground v.1.15,2013-01-25 19:19:00,
2013-01-25 14:25:00,23.5,-8.1,30.15,NNW,346,4.0,8.0,24,0.00,,,0.00,Wunderground v.1.15,2013-01-25 19:25:00,
2013-01-25 14:31:00,23.5,-8.1,30.15,WNW,301,4.0,8.0,24,0.00,,,0.00,Wunderground v.1.15,2013-01-25 19:31:00,
2013-01-25 14:37:00,23.9,-7.7,30.15,NNW,340,4.0,8.0,24,0.00,,,0.00,Wunderground v.1.15,2013-01-25 19:37:00,
2013-01-25 14:43:00,24.4,-7.3,30.15,NNW,346,3.0,8.0,24,0.00,,,0.00,Wunderground v.1.15,2013-01-25 19:43:00,
2013-01-25 14:48:00,24.8,-7.0,30.14,WNW,297,3.0,8.0,24,0.00,,,0.00,Wunderground v.1.15,2013-01-25 19:48:00,
2013-01-25 14:54:00,25.1,-6.7,30.14,WSW,245,3.0,8.0,24,0.00,,,0.00,Wunderground v.1.15,2013-01-25 19:54:00,
2013-01-25 15:00:00,25.1,-6.7,30.14,NNE,18,3.0,8.0,24,0.00,,,0.00,Wunderground v.1.15,2013-01-25 20:00:00,
2013-01-25 15:06:00,24.8,-7.0,30.14,North,4,3.0,8.0,24,0.00,,,0.00,Wunderground v.1.15,2013-01-25 20:06:00,
2013-01-25 15:11:00,24.6,-6.3,30.14,NNW,347,5.0,8.0,25,0.00,,,0.00,Wunderground v.1.15,2013-01-25 20:11:00,
2013-01-25 15:17:00,24.2,-6.6,30.13,NNW,337,6.0,11.0,25,0.00,,,0.00,Wunderground v.1.15,2013-01-25 20:17:00,
2013-01-25 15:23:00,24.1,-6.7,30.13,West,268,5.0,8.0,25,0.00,,,0.00,Wunderground v.1.15,2013-01-25 20:23:00,
2013-01-25 15:29:00,24.0,-7.6,30.13,NW,307,4.0,8.0,24,0.00,,,0.00,Wunderground v.1.15,2013-01-25 20:29:00,
2013-01-25 15:35:00,24.0,-7.6,30.14,WNW,300,3.0,8.0,24,0.00,,,0.00,Wunderground v.1.15,2013-01-25 20:35:00,
2013-01-25 15:41:00,23.9,-7.7,30.13,NE,48,3.0,8.0,24,0.00,,,0.00,Wunderground v.1.15,2013-01-25 20:41:00,
2013-01-25 15:47:00,23.8,-7.0,30.13,NNE,14,3.0,8.0,25,0.00,,,0.00,Wunderground v.1.15,2013-01-25 20:47:00,
2013-01-25 15:52:00,23.8,-7.0,30.13,NNW,339,2.0,8.0,25,0.00,,,0.00,Wunderground v.1.15,2013-01-25 20:52:00,
2013-01-25 15:58:00,23.7,-7.1,30.14,NW,323,3.0,8.0,25,0.00,,,0.00,Wunderground v.1.15,2013-01-25 20:58:00,
2013-01-25 16:04:00,23.7,-6.3,30.14,WNW,288,3.0,8.0,26,0.00,,,0.00,Wunderground v.1.15,2013-01-25 21:04:00,
2013-01-25 16:10:00,23.6,-6.3,30.14,NW,320,4.0,8.0,26,0.00,,,0.00,Wunderground v.1.15,2013-01-25 21:10:00,
2013-01-25 16:15:00,23.4,-6.5,30.14,NNW,339,3.0,8.0,26,0.00,,,0.00,Wunderground v.1.15,2013-01-25 21:15:00,
2013-01-25 16:21:00,23.3,-6.6,30.14,NNW,333,3.0,8.0,26,0.00,,,0.00,Wunderground v.1.15,2013-01-25 21:21:00,
2013-01-25 16:27:00,23.2,-4.4,30.15,WNW,283,2.0,8.0,29,0.00,,,0.00,Wunderground v.1.15,2013-01-25 21:27:00,
2013-01-25 16:33:00,23.1,-6.0,30.14,NW,310,3.0,8.0,27,0.00,,,0.00,Wunderground v.1.15,2013-01-25 21:33:00,
2013-01-25 16:39:00,23.0,-6.1,30.14,NW,314,3.0,8.0,27,0.00,,,0.00,Wunderground v.1.15,2013-01-25 21:39:00,
2013-01-25 16:45:00,22.8,-5.5,30.14,North,354,2.0,8.0,28,0.00,,,0.00,Wunderground v.1.15,2013-01-25 21:45:00,
2013-01-25 16:51:00,22.6,-6.4,30.14,NW,317,2.0,8.0,27,0.00,,,0.00,Wunderground v.1.15,2013-01-25 21:51:00,
2013-01-25 16:56:00,22.5,-6.5,30.14,NW,308,2.0,8.0,27,0.00,,,0.00,Wunderground v.1.15,2013-01-25 21:56:00,
2013-01-25 17:02:00,22.4,-5.8,30.14,WNW,293,3.0,8.0,28,0.00,,,0.00,Wunderground v.1.15,2013-01-25 22:02:00,
2013-01-25 17:08:00,22.4,-5.8,30.14,NW,320,3.0,8.0,28,0.00,,,0.00,Wunderground v.1.15,2013-01-25 22:08:00,
2013-01-25 17:14:00,22.3,-5.9,30.14,North,350,3.0,8.0,28,0.00,,,0.00,Wunderground v.1.15,2013-01-25 22:14:00,
2013-01-25 17:20:00,22.2,-6.0,30.14,ENE,78,2.0,2.0,28,0.00,,,0.00,Wunderground v.1.15,2013-01-25 22:20:00,
2013-01-25 17:26:00,22.1,-6.1,30.14,NW,310,2.0,8.0,28,0.00,,,0.00,Wunderground v.1.15,2013-01-25 22:26:00,
2013-01-25 17:32:00,22.1,-6.9,30.14,NNW,337,2.0,8.0,27,0.00,,,0.00,Wunderground v.1.15,2013-01-25 22:32:00,
2013-01-25 17:38:00,22.1,-6.1,30.15,North,4,3.0,8.0,28,0.00,,,0.00,Wunderground v.1.15,2013-01-25 22:38:00,
2013-01-25 17:44:00,22.0,-6.2,30.15,NNW,328,3.0,8.0,28,0.00,,,0.00,Wunderground v.1.15,2013-01-25 22:44:00,
2013-01-25 17:49:00,21.9,-6.3,30.14,NNW,341,2.0,8.0,28,0.00,,,0.00,Wunderground v.1.15,2013-01-25 22:49:00,
2013-01-25 17:55:00,21.8,-6.4,30.14,NNW,346,2.0,8.0,28,0.00,,,0.00,Wunderground v.1.15,2013-01-25 22:55:00,
2013-01-25 18:01:00,21.8,-5.6,30.14,WNW,297,1.0,8.0,29,0.00,,,0.00,Wunderground v.1.15,2013-01-25 23:01:00,
2013-01-25 18:07:00,21.7,-5.0,30.14,WNW,299,1.0,8.0,30,0.00,,,0.00,Wunderground v.1.15,2013-01-25 23:07:00,
2013-01-25 18:13:00,21.7,-5.7,30.13,WNW,303,1.0,8.0,29,0.00,,,0.00,Wunderground v.1.15,2013-01-25 23:13:00,
2013-01-25 18:19:00,21.6,-5.8,30.13,WNW,303,1.0,8.0,29,0.00,,,0.00,Wunderground v.1.15,2013-01-25 23:19:00,
2013-01-25 18:25:00,21.6,-5.1,30.13,WNW,296,1.0,8.0,30,0.00,,,0.00,Wunderground v.1.15,2013-01-25 23:25:00,
2013-01-25 18:30:00,21.5,-4.5,30.12,WNW,295,0.0,8.0,31,0.00,,,0.00,Wunderground v.1.15,2013-01-25 23:30:00,
2013-01-25 18:36:00,21.5,-5.2,30.13,WNW,296,1.0,8.0,30,0.00,,,0.00,Wunderground v.1.15,2013-01-25 23:36:00,
2013-01-25 18:42:00,21.5,-5.2,30.13,WNW,296,1.0,8.0,30,0.00,,,0.00,Wunderground v.1.15,2013-01-25 23:42:00,
2013-01-25 18:48:00,21.4,-4.6,30.12,WNW,296,0.0,8.0,31,0.00,,,0.00,Wunderground v.1.15,2013-01-25 23:48:00,
2013-01-25 18:53:00,21.4,-4.6,30.13,WNW,296,0.0,8.0,31,0.00,,,0.00,Wunderground v.1.15,2013-01-25 23:53:00,
2013-01-25 18:59:00,21.3,-4.7,30.12,WNW,296,0.0,8.0,31,0.00,,,0.00,Wunderground v.1.15,2013-01-25 23:59:00,
2013-01-25 19:05:00,21.3,-4.7,30.12,WNW,296,0.0,8.0,31,0.00,,,0.00,Wunderground v.1.15,2013-01-26 00:05:00,
2013-01-25 19:11:00,21.2,-4.1,30.12,WNW,296,0.0,8.0,32,0.00,,,0.00,Wunderground v.1.15,2013-01-26 00:11:00,
2013-01-25 19:17:00,21.1,-4.2,30.12,WNW,296,0.0,8.0,32,0.00,,,0.00,Wunderground v.1.15,2013-01-26 00:17:00,
2013-01-25 19:23:00,21.1,-4.2,30.12,WNW,296,0.0,8.0,32,0.00,,,0.00,Wunderground v.1.15,2013-01-26 00:23:00,
2013-01-25 19:29:00,21.0,-4.3,30.12,WNW,296,0.0,8.0,32,0.00,,,0.00,Wunderground v.1.15,2013-01-26 00:29:00,
2013-01-25 19:34:00,21.0,-4.3,30.12,WNW,296,1.0,8.0,32,0.00,,,0.00,Wunderground v.1.15,2013-01-26 00:34:00,
2013-01-25 19:40:00,20.9,-4.4,30.12,WNW,297,1.0,8.0,32,0.00,,,0.00,Wunderground v.1.15,2013-01-26 00:40:00,
2013-01-25 19:46:00,20.9,-3.1,30.12,WNW,297,0.0,8.0,34,0.00,,,0.00,Wunderground v.1.15,2013-01-26 00:46:00,
2013-01-25 19:52:00,20.9,-3.7,30.12,WNW,297,0.0,8.0,33,0.00,,,0.00,Wunderground v.1.15,2013-01-26 00:52:00,
2013-01-25 19:57:00,20.9,-4.4,30.12,WNW,297,1.0,8.0,32,0.00,,,0.00,Wunderground v.1.15,2013-01-26 00:57:00,
2013-01-25 20:03:00,20.9,-3.7,30.11,WNW,297,1.0,8.0,33,0.00,,,0.00,Wunderground v.1.15,2013-01-26 01:03:00,
2013-01-25 20:09:00,20.9,-3.7,30.10,WNW,297,0.0,8.0,33,0.00,,,0.00,Wunderground v.1.15,2013-01-26 01:09:00,
2013-01-25 20:15:00,20.9,-3.7,30.10,WNW,296,0.0,8.0,33,0.00,,,0.00,Wunderground v.1.15,2013-01-26 01:15:00,
2013-01-25 20:21:00,20.9,-3.7,30.10,WNW,297,0.0,8.0,33,0.00,,,0.00,Wunderground v.1.15,2013-01-26 01:21:00,
2013-01-25 20:27:00,20.8,-3.8,30.10,WNW,297,0.0,8.0,33,0.00,,,0.00,Wunderground v.1.15,2013-01-26 01:27:00,
2013-01-25 20:33:00,20.8,-3.8,30.09,WNW,296,0.0,8.0,33,0.00,,,0.00,Wunderground v.1.15,2013-01-26 01:33:00,
2013-01-25 20:38:00,20.7,-4.6,30.09,WNW,297,0.0,8.0,32,0.00,,,0.00,Wunderground v.1.15,2013-01-26 01:38:00,
2013-01-25 20:44:00,20.7,-3.3,30.09,WNW,297,0.0,8.0,34,0.00,,,0.00,Wunderground v.1.15,2013-01-26 01:44:00,
2013-01-25 20:50:00,20.6,-3.4,30.09,WNW,296,0.0,8.0,34,0.00,,,0.00,Wunderground v.1.15,2013-01-26 01:50:00,
2013-01-25 20:56:00,20.5,-3.5,30.08,WNW,296,0.0,8.0,34,0.00,,,0.00,Wunderground v.1.15,2013-01-26 01:56:00,
2013-01-25 21:01:00,20.5,-4.1,30.08,WNW,297,0.0,8.0,33,0.00,,,0.00,Wunderground v.1.15,2013-01-26 02:01:00,
2013-01-25 21:07:00,20.4,-4.2,30.08,WNW,297,0.0,8.0,33,0.00,,,0.00,Wunderground v.1.15,2013-01-26 02:07:00,
2013-01-25 21:13:00,20.4,-3.6,30.09,WNW,297,0.0,8.0,34,0.00,,,0.00,Wunderground v.1.15,2013-01-26 02:13:00,
2013-01-25 21:19:00,20.4,-2.4,30.08,WNW,296,0.0,8.0,36,0.00,,,0.00,Wunderground v.1.15,2013-01-26 02:19:00,
2013-01-25 21:25:00,20.4,-2.4,30.08,WNW,297,0.0,8.0,36,0.00,,,0.00,Wunderground v.1.15,2013-01-26 02:25:00,
2013-01-25 21:31:00,20.4,-2.4,30.08,WNW,297,0.0,8.0,36,0.00,,,0.00,Wunderground v.1.15,2013-01-26 02:31:00,
2013-01-25 21:37:00,20.4,-1.8,30.07,WNW,297,0.0,8.0,37,0.00,,,0.00,Wunderground v.1.15,2013-01-26 02:37:00,
2013-01-25 21:42:00,20.4,-2.4,30.07,WNW,297,0.0,8.0,36,0.00,,,0.00,Wunderground v.1.15,2013-01-26 02:42:00,
2013-01-25 21:48:00,20.4,-2.4,30.07,WNW,296,0.0,8.0,36,0.00,,,0.00,Wunderground v.1.15,2013-01-26 02:48:00,
2013-01-25 21:54:00,20.4,-1.8,30.07,WNW,297,0.0,8.0,37,0.00,,,0.00,Wunderground v.1.15,2013-01-26 02:54:00,
2013-01-25 22:00:00,20.4,-2.4,30.07,WNW,297,0.0,8.0,36,0.00,,,0.00,Wunderground v.1.15,2013-01-26 03:00:00,
2013-01-25 22:05:00,20.4,-1.2,30.07,WNW,297,0.0,8.0,38,0.00,,,0.00,Wunderground v.1.15,2013-01-26 03:05:00,
2013-01-25 22:11:00,20.4,-1.8,30.07,WNW,296,0.0,8.0,37,0.00,,,0.00,Wunderground v.1.15,2013-01-26 03:11:00,
2013-01-25 22:17:00,20.4,-1.8,30.07,WNW,297,0.0,8.0,37,0.00,,,0.00,Wunderground v.1.15,2013-01-26 03:17:00,
2013-01-25 22:23:00,20.4,-1.8,30.06,WNW,297,0.0,8.0,37,0.00,,,0.00,Wunderground v.1.15,2013-01-26 03:23:00,
2013-01-25 22:29:00,20.4,-1.8,30.06,WNW,297,0.0,8.0,37,0.00,,,0.00,Wunderground v.1.15,2013-01-26 03:29:00,
2013-01-25 22:35:00,20.5,-2.3,30.07,NE,39,1.0,8.0,36,0.00,,,0.00,Wunderground v.1.15,2013-01-26 03:35:00,
2013-01-25 22:41:00,20.4,-0.1,30.06,NE,47,1.0,8.0,40,0.00,,,0.00,Wunderground v.1.15,2013-01-26 03:41:00,
2013-01-25 22:46:00,20.3,-0.2,30.07,NNW,341,2.0,8.0,40,0.00,,,0.00,Wunderground v.1.15,2013-01-26 03:46:00,
2013-01-25 22:52:00,20.3,0.8,30.06,NW,306,2.0,8.0,42,0.00,,,0.00,Wunderground v.1.15,2013-01-26 03:52:00,
2013-01-25 22:58:00,20.1,1.1,30.06,NNW,335,1.0,8.0,43,0.00,,,0.00,Wunderground v.1.15,2013-01-26 03:58:00,
2013-01-25 23:04:00,19.9,2.4,30.07,NNE,18,1.0,8.0,46,0.00,,,0.00,Wunderground v.1.15,2013-01-26 04:04:00,
2013-01-25 23:10:00,19.7,3.2,30.07,NNE,24,1.0,1.0,48,0.00,,,0.00,Wunderground v.1.15,2013-01-26 04:10:00,
2013-01-25 23:16:00,19.6,4.4,30.07,NNW,343,1.0,8.0,51,0.00,,,0.00,Wunderground v.1.15,2013-01-26 04:16:00,
2013-01-25 23:22:00,19.3,5.7,30.06,NE,35,2.0,8.0,55,0.00,,,0.00,Wunderground v.1.15,2013-01-26 04:22:00,
2013-01-25 23:28:00,19.0,7.0,30.06,NNW,334,2.0,8.0,59,0.00,,,0.00,Wunderground v.1.15,2013-01-26 04:28:00,
2013-01-25 23:33:00,18.8,7.9,30.06,NNW,336,1.0,8.0,62,0.00,,,0.00,Wunderground v.1.15,2013-01-26 04:33:00,
2013-01-25 23:39:00,18.7,8.5,30.06,NNW,336,0.0,8.0,64,0.00,,,0.00,Wunderground v.1.15,2013-01-26 04:39:00,
2013-01-25 23:45:00,18.6,8.8,30.06,NNW,336,0.0,8.0,65,0.00,,,0.00,Wunderground v.1.15,2013-01-26 04:45:00,
2013-01-25 23:51:00,18.4,9.6,30.06,East,81,1.0,8.0,68,0.00,,,0.00,Wunderground v.1.15,2013-01-26 04:51:00,
2013-01-25 23:56:00,18.2,10.1,30.06,NE,43,0.0,8.0,70,0.00,,,0.00,Wunderground v.1.15,2013-01-26 04:56:00,